When you browse on this site, cookies collect data to enhance your experience and personalize the content and advertising you see.
Visit our Privacy Policy to learn more. By continuing to use the site, you agree to this use of cookies and data.
  • In Austria
  • List of Countries
  • For 7 days
  • Water Temperature
  • Weather Map
  • News
  • Weather Widgets
  • user-avatar
    Login

    Hourly Weather Rosas

    Today, 12 December, Thursday

    Time Temperature Precipitation Wind Pressure Humidity
    00:00 +15°C° 1.7 mm 0 mps 616 mmHg 98%
    01:00 +15°C° 1.7 mm 0 mps 616 mmHg 99%
    02:00 +15°C° 0.9 mm 0 mps 616 mmHg 99%
    03:00 +15°C° 0.9 mm 0 mps 616 mmHg 99%
    04:00 +15°C° 0.9 mm 0 mps 615 mmHg 99%
    05:00 +15°C° 0.9 mm 0 mps 616 mmHg 99%
    06:00 +15°C° 0.9 mm 0 mps 616 mmHg 99%
    07:00 +15°C° 0.9 mm 0 mps 616 mmHg 99%
    08:00 +16°C° 0.3 mm 0 mps 617 mmHg 96%
    09:00 +17°C° 0.3 mm 0 mps 617 mmHg 93%
    10:00 +20°C° 0.3 mm 1 mps 618 mmHg 91%
    11:00 +21°C° 0.3 mm 1 mps 617 mmHg 87%
    12:00 +22°C° 0.3 mm 1 mps 617 mmHg 83%
    13:00 +22°C° 0.3 mm 1 mps 617 mmHg 80%
    14:00 +22°C° 1.1 mm 1 mps 616 mmHg 84%
    15:00 +21°C° 1.1 mm 1 mps 615 mmHg 89%
    16:00 +20°C° 1.1 mm 1 mps 615 mmHg 93%
    17:00 +19°C° 1.3 mm 1 mps 615 mmHg 95%
    18:00 +18°C° 1.3 mm 1 mps 615 mmHg 97%
    19:00 +16°C° 1.3 mm 1 mps 615 mmHg 98%
    20:00 +15°C° 0.9 mm 0 mps 615 mmHg 98%
    21:00 +15°C° 0.9 mm 0 mps 616 mmHg 98%
    22:00 +15°C° 0.9 mm 0 mps 617 mmHg 98%
    23:00 +15°C° 0.6 mm 0 mps 616 mmHg 98%

    Tomorrow, 13 December, Friday

    Time Temperature Precipitation Wind Pressure Humidity
    00:00 +15°C° 0.6 mm 0 mps 616 mmHg 98%
    01:00 +15°C° 0.6 mm 0 mps 616 mmHg 98%
    02:00 +15°C° 0.2 mm 0 mps 615 mmHg 98%
    03:00 +15°C° 0.2 mm 0 mps 615 mmHg 98%
    04:00 +15°C° 0.2 mm 0 mps 615 mmHg 98%
    05:00 +15°C° 0.5 mm 0 mps 615 mmHg 98%
    06:00 +15°C° 0.5 mm 0 mps 616 mmHg 98%
    07:00 +15°C° 0.5 mm 0 mps 616 mmHg 98%
    08:00 +15°C° 0.2 mm 0 mps 616 mmHg 97%
    09:00 +16°C° 0.2 mm 0 mps 617 mmHg 95%
    10:00 +16°C° 0.2 mm 0 mps 618 mmHg 94%
    11:00 +17°C° 0.3 mm 0 mps 617 mmHg 94%
    12:00 +17°C° 0.3 mm 0 mps 616 mmHg 94%
    13:00 +17°C° 0.3 mm 0 mps 616 mmHg 94%
    14:00 +19°C° 0.2 mm 1 mps 615 mmHg 92%
    15:00 +20°C° 0.2 mm 1 mps 615 mmHg 90%
    16:00 +20°C° 0.2 mm 1 mps 615 mmHg 88%
    17:00 +19°C° 0.2 mm 1 mps 615 mmHg 91%
    18:00 +16°C° 0.2 mm 0 mps 615 mmHg 94%
    19:00 +15°C° 0.2 mm 0 mps 615 mmHg 97%
    20:00 +15°C° 0 mm 0 mps 616 mmHg 97%
    21:00 +15°C° 0 mm 0 mps 616 mmHg 96%
    22:00 +15°C° 0 mm 0 mps 616 mmHg 95%
    23:00 +15°C° 0 mm 0 mps 616 mmHg 95%

    Day after tomorrow, 14 December, Saturday

    Time Temperature Precipitation Wind Pressure Humidity
    00:00 +15°C° 0 mm 0 mps 616 mmHg 95%
    01:00 +15°C° 0 mm 0 mps 616 mmHg 95%
    02:00 +14°C° 0 mm 0 mps 615 mmHg 96%
    03:00 +14°C° 0 mm 0 mps 615 mmHg 96%
    04:00 +14°C° 0 mm 0 mps 615 mmHg 96%
    05:00 +14°C° 0 mm 0 mps 616 mmHg 95%
    06:00 +15°C° 0 mm 0 mps 616 mmHg 94%
    07:00 +15°C° 0 mm 0 mps 616 mmHg 94%
    08:00 +17°C° 0.1 mm 0 mps 617 mmHg 88%
    09:00 +20°C° 0.1 mm 1 mps 618 mmHg 83%
    10:00 +22°C° 0.1 mm 1 mps 619 mmHg 78%
    11:00 +22°C° 0.5 mm 1 mps 618 mmHg 79%
    12:00 +22°C° 0.5 mm 1 mps 618 mmHg 81%
    13:00 +22°C° 0.5 mm 1 mps 617 mmHg 82%
    14:00 +22°C° 1.3 mm 1 mps 617 mmHg 86%
    15:00 +21°C° 1.3 mm 1 mps 616 mmHg 89%
    16:00 +21°C° 1.3 mm 1 mps 616 mmHg 93%
    17:00 +20°C° 0.8 mm 1 mps 616 mmHg 94%
    18:00 +17°C° 0.8 mm 0 mps 616 mmHg 96%
    19:00 +16°C° 0.8 mm 0 mps 616 mmHg 97%
    20:00 +16°C° 1.8 mm 0 mps 616 mmHg 97%
    21:00 +16°C° 1.8 mm 0 mps 617 mmHg 97%
    22:00 +15°C° 1.8 mm 0 mps 617 mmHg 97%
    23:00 +15°C° 1.3 mm 0 mps 617 mmHg 97%

    15 December, Sunday

    Time Temperature Precipitation Wind Pressure Humidity
    00:00 +15°C° 1.3 mm 0 mps 616 mmHg 97%
    01:00 +15°C° 1.3 mm 0 mps 616 mmHg 98%
    02:00 +15°C° 0.6 mm 0 mps 616 mmHg 98%
    03:00 +15°C° 0.6 mm 0 mps 616 mmHg 97%
    04:00 +15°C° 0.6 mm 0 mps 616 mmHg 97%
    05:00 +15°C° 0.6 mm 0 mps 616 mmHg 97%
    06:00 +15°C° 0.6 mm 0 mps 617 mmHg 96%
    07:00 +15°C° 0.6 mm 0 mps 617 mmHg 96%
    08:00 +16°C° 0.2 mm 0 mps 618 mmHg 94%
    09:00 +17°C° 0.2 mm 0 mps 618 mmHg 93%
    10:00 +18°C° 0.2 mm 0 mps 619 mmHg 91%
    11:00 +18°C° 0.4 mm 0 mps 618 mmHg 89%
    12:00 +21°C° 0.4 mm 1 mps 618 mmHg 87%
    13:00 +22°C° 0.4 mm 1 mps 617 mmHg 84%
    14:00 +21°C° 0.7 mm 1 mps 617 mmHg 85%
    15:00 +21°C° 0.7 mm 1 mps 616 mmHg 86%
    16:00 +21°C° 0.7 mm 1 mps 616 mmHg 87%
    17:00 +20°C° 1.3 mm 1 mps 616 mmHg 90%
    18:00 +17°C° 1.3 mm 0 mps 616 mmHg 93%
    19:00 +16°C° 1.3 mm 0 mps 616 mmHg 97%
    20:00 +16°C° 1.8 mm 0 mps 616 mmHg 97%
    21:00 +15°C° 1.8 mm 0 mps 617 mmHg 97%
    22:00 +15°C° 1.8 mm 0 mps 617 mmHg 97%
    23:00 +15°C° 0.6 mm 0 mps 617 mmHg 97%

    16 December, Monday

    Time Temperature Precipitation Wind Pressure Humidity
    00:00 +15°C° 0.6 mm 0 mps 617 mmHg 96%
    01:00 +15°C° 0.6 mm 0 mps 616 mmHg 96%
    02:00 +15°C° 0.4 mm 0 mps 616 mmHg 96%
    03:00 +15°C° 0.4 mm 0 mps 616 mmHg 96%
    04:00 +15°C° 0.4 mm 0 mps 615 mmHg 96%
    05:00 +15°C° 0.2 mm 0 mps 616 mmHg 95%
    06:00 +15°C° 0.2 mm 0 mps 616 mmHg 95%
    07:00 +15°C° 0.2 mm 0 mps 617 mmHg 94%
    08:00 +17°C° 0.1 mm 0 mps 617 mmHg 90%
    09:00 +18°C° 0.1 mm 0 mps 618 mmHg 86%
    10:00 +21°C° 0.1 mm 1 mps 619 mmHg 81%
    11:00 +22°C° 0.3 mm 1 mps 618 mmHg 79%
    12:00 +22°C° 0.3 mm 1 mps 618 mmHg 77%
    13:00 +23°C° 0.3 mm 1 mps 618 mmHg 75%
    14:00 +23°C° 0.8 mm 1 mps 617 mmHg 79%
    15:00 +22°C° 0.8 mm 1 mps 616 mmHg 83%
    16:00 +21°C° 0.8 mm 1 mps 616 mmHg 87%
    17:00 +20°C° 0.8 mm 1 mps 615 mmHg 90%
    18:00 +17°C° 0.8 mm 0 mps 615 mmHg 94%
    19:00 +16°C° 0.8 mm 0 mps 615 mmHg 97%
    20:00 +16°C° 0.3 mm 0 mps 616 mmHg 97%
    21:00 +16°C° 0.3 mm 0 mps 616 mmHg 96%
    22:00 +16°C° 0.3 mm 0 mps 617 mmHg 96%
    23:00 +16°C° 0.1 mm 0 mps 617 mmHg 96%

    17 December, Tuesday

    Time Temperature Precipitation Wind Pressure Humidity
    00:00 +15°C° 0.1 mm 0 mps 616 mmHg 97%
    01:00 +15°C° 0.1 mm 0 mps 616 mmHg 97%
    02:00 +15°C° 0.1 mm 0 mps 616 mmHg 97%
    03:00 +15°C° 0.1 mm 0 mps 615 mmHg 97%
    04:00 +15°C° 0.1 mm 0 mps 615 mmHg 97%
    05:00 +16°C° 0 mm 0 mps 616 mmHg 97%
    06:00 +16°C° 0 mm 0 mps 616 mmHg 96%
    07:00 +16°C° 0 mm 0 mps 616 mmHg 95%
    08:00 +18°C° 0.2 mm 0 mps 617 mmHg 90%
    09:00 +21°C° 0.2 mm 1 mps 618 mmHg 84%
    10:00 +23°C° 0.2 mm 1 mps 618 mmHg 79%
    11:00 +23°C° 1.3 mm 1 mps 618 mmHg 81%
    12:00 +23°C° 1.3 mm 1 mps 617 mmHg 83%
    13:00 +23°C° 1.3 mm 1 mps 616 mmHg 85%
    14:00 +22°C° 1.9 mm 1 mps 616 mmHg 88%
    15:00 +21°C° 1.9 mm 1 mps 615 mmHg 90%
    16:00 +21°C° 1.9 mm 1 mps 614 mmHg 93%
    17:00 +20°C° 2.2 mm 1 mps 614 mmHg 94%
    18:00 +17°C° 2.2 mm 0 mps 615 mmHg 96%
    19:00 +16°C° 2.2 mm 0 mps 615 mmHg 97%
    20:00 +16°C° 1.9 mm 0 mps 615 mmHg 97%
    21:00 +16°C° 1.9 mm 0 mps 616 mmHg 96%
    22:00 +16°C° 1.9 mm 0 mps 616 mmHg 96%
    23:00 +15°C° 0.7 mm 0 mps 616 mmHg 96%
    Show more